Regional Weather Roundup
Issued by NWS Upton, NY

Current Version | Previous Version | Graphics & Text | Print | Product List | Glossary Off
Versions: 1 2 3 4 5 6 7 8 9 10 11 12 13 14 15 16 17 18 19 20 21 22 23 24 25 26 27 28 29 30 31 32 33 34 35 36 37 38 39 40 41 42 43 44 45 46 47 48 49 50

000
ASUS41 KOKX 172308
RWROKX

REGIONAL WEATHER ROUNDUP
NATIONAL WEATHER SERVICE NEW YORK NY
700 PM EDT TUE OCT 17 2017

NOTE: "FAIR" INDICATES FEW OR NO CLOUDS BELOW 12,000 FEET WITH NO
SIGNIFICANT WEATHER AND/OR OBSTRUCTIONS TO VISIBILITY.

NYZ071-072-176-178-NJZ106-104-180000-
NEW YORK CITY METRO AREA

CITY           SKY/WX    TMP DP  RH WIND       PRES   REMARKS
Central Park   CLEAR     56  35  45 VRB6      30.28R
Bronx Bot Gard   N/A     54  34  47 S2        30.27R
LaGuardia APRT CLEAR     58  33  39 S8        30.25R
Kennedy INTL   PTCLDY    53  39  59 S10       30.28R
Breezy Point     N/A     54 N/A N/A S13         N/A
Newark/Liberty PTCLDY    57  32  38 SW10      30.26R
Teterboro      CLEAR     54  36  50 S5        30.25R
$$

NYZ177-179-078>081-180000-
LONG ISLAND NEW YORK

CITY           SKY/WX    TMP DP  RH WIND       PRES   REMARKS
Jones Beach      N/A     54 N/A N/A S3          N/A
Matinecock PT    N/A     54 N/A N/A S6          N/A
Farmingdale    CLEAR     52  37  56 SW7       30.28R
MacArthur/ISP  CLEAR     51  39  63 S6        30.28R
Shirley        CLEAR     47  39  74 CALM      30.28R
Mt Sinai Harb    N/A    N/A N/A N/A S3          N/A
Westhampton    CLEAR     41  34  76 CALM      30.29R
East Hampton   FAIR      41  38  91 CALM      30.27R
Montauk          N/A     51  39  63 SW3       30.29R
$$

NYZ052-065-067-180000-
HUDSON VALLEY

CITY           SKY/WX    TMP DP  RH WIND       PRES   REMARKS
White Plains   CLEAR     48  36  63 CALM      30.25R
Larchmont Harb   N/A     57 N/A N/A S13         N/A
Croton On Huds   N/A     57 N/A N/A S7          N/A
Newburgh       CLEAR     55  34  44 SW7       30.24R
Montgomery     CLEAR     47  38  71 S3        30.23R
Poughkeepsie   CLEAR     53  34  48 S5        30.23R
Albany         CLEAR     50  33  52 S5        30.19S
$$

NJZ001-105-106-008-010-013-015-019>022-104-180000-
NEW JERSEY

CITY           SKY/WX    TMP DP  RH WIND       PRES   REMARKS
Newark/Liberty PTCLDY    57  32  38 SW10      30.26R
Teterboro      CLEAR     54  36  50 S5        30.25R
Caldwell       CLEAR     55  35  47 CALM      30.26R
Somerville     CLEAR     48  38  68 CALM      30.25R
Linden         FAIR      57  32  38 CALM      30.26S
Perth Amboy    NOT AVBL
Sussex         CLEAR     50  38  63 CALM      30.25R
Andover          N/A     47  41  80 CALM      30.26R
Trenton        CLEAR     55  34  45 SW3       30.27R
Millville      CLEAR     52  43  71 S3        30.30R
Atlantic City  CLEAR     52  41  66 S3        30.30R
Wrightstown    CLEAR     45  39  81 S6        30.27R
Toms River       N/A     46  42  86 CALM      30.30R
Belmar         CLEAR     50  41  71 CALM      30.30R
$$

PAZ047>061-062-071-180000-
EASTERN PENNSYLVANIA

CITY           SKY/WX    TMP DP  RH WIND       PRES   REMARKS
Philadelphia   CLEAR     58  36  43 S8        30.29R
Allentown      CLEAR     50  34  54 SW7       30.26R
Scranton       CLEAR     51  32  48 S3        30.24S
$$

CTZ002-004>006-009-010-012-RIZ004-006-007-MAZ004-011-015-180000-
SOUTHERN NEW ENGLAND
 IN CT

CITY           SKY/WX    TMP DP  RH WIND       PRES   REMARKS
Bradley INTL   CLEAR     50  32  50 S7        30.23R
Hartford       CLEAR     53  34  48 S7        30.24R
Danbury        CLEAR     45  36  70 SW3       30.26R
Wtrbury/Oxford CLEAR     48  35  60 S3        30.25R
Norwalk Harbor   N/A     55 N/A N/A S9          N/A
Bridgeport     CLEAR     57  35  43 SW7       30.25S
Meriden        CLEAR     49  38  65 S3        30.25R
New Haven      CLEAR     56  37  49 SW7       30.26R
Chester        FAIR      48  37  66 S3        30.26R
Groton         CLEAR     52  37  56 SW10      30.26R
Wilimantic     CLEAR     48  36  63 CALM      30.25R

 IN RI

CITY           SKY/WX    TMP DP  RH WIND       PRES   REMARKS
Providence     PTCLDY    50  38  63 SW12      30.26R
Block Island   CLEAR     50  36  58 SW9       30.28R
Westerly       CLEAR     50  39  66 SW3       30.27R
 IN MA

CITY           SKY/WX    TMP DP  RH WIND       PRES   REMARKS
Boston         PTCLDY    53  33  46 S9        30.22R
Worcester      CLEAR     43  30  60 SW7       30.21R
Westfield      CLEAR     47  34  60 S5        30.21R
Provincetown   CLEAR     49  39  68 S10       30.25R
Nantucket      CLEAR     45  38  76 CALM      30.26R
$$

ANZ330-335-338-340-345-350-353-355-180000-
COASTAL MARINE OBSERVATIONS


STATION/POSITION TIME  SKY/WX   TEMP    WIND        PRES    VSBY  WAVE
                                AIR SEA DIR/SP/G                  HT/PER
                 (UTC)          (F)     (DEG/KT/KT) (MB)    (MI)  (FT/S)
NY HARB ENTRANCE 2150            56 65  170/  4/  6 1024.3          2/11
20 S FIRE ISLAND 2150            53 64  210/  4/  8 1025.4          2/10
GREAT SOUTH BAY  2230            54 62  220/ 10/ 12   N/A
15 E BARNEGAT LI 2230               66                N/A           3/10
HUDSON CANYON    2150            54 65   20/  4/  6 1025.0          3/ 6
KINGS POINT      2248            56 65  210/  9/ 11 1025.3
EXECUTION ROCKS  2230            58     160/ 10/ 14   N/A
WESTERN LI SOUND 2149            58     180/  8/ 10   N/A           0
CENTRAL LI SOUND 2200            56     240/  8/ 12   N/A           1
EASTERN LI SOUND NOT AVBL
ROBBINS REEF     2248            56     190/ 12/ 14 1025.2
$$


>>>>>>>>>>>>>>>>>>>>>>>>>>>> KEY <<<<<<<<<<<<<<<<<<<<<<<<<<<
>                                                          <
>     SKY/WX - Sky Condition/Present Weather               <
>     TMP    - Temperature in Fahrenheit                   <
>     DP     - Dew Point in Fahrenheit                     <
>     RH     - Relative Humidity in Percent                <
>     WIND   - Direction (from) and Speed in MPH           <
>     PRES   - Mean Sea Level Pressure (inches of Hg)      <
>     WCI    - Wind Chill Index                            <
>     VSB    - VISIBILITY IN MILES                         <
>     HX     - HEAT INDEX                                  <
>     TC     - TEMPERATURE IN CELSIUS                      <
>     VRB    - VARIABLE WIND DIRECTION                     <
>                                                          <
>>>>>>>>>>>>>>>>>>>>>>>>>>>> KEY <<<<<<<<<<<<<<<<<<<<<<<<<<<



USA.gov is the U.S. government's official web portal to all federal, state and local government web resources and services.